Weather History for Massena, NY

Change the Weather History Date:

Friday, April 18, 2014

  Actual Average Record
Temperature  
Mean Temperature 44 °F 45 °F  
Max Temperature 55 °F 56 °F 82 °F (1976)
Min Temperature 32 °F 34 °F 25 °F (1965)
Degree Days  
Heating Degree Days 21 20  
Month to date heating degree days 467 441  
Since 1 July heating degree days 8064 7572  
Cooling Degree Days 0 0  
Month to date cooling degree days 0 0  
Year to date cooling degree days 0 0  
Moisture  
Dew Point 29 °F    
Average Humidity 68    
Maximum Humidity 100    
Minimum Humidity 35    
Precipitation  
Precipitation 0.11 in 0.10 in 0.69 in (1985)
Month to date precipitation 2.41 1.69  
Year to date precipitation 6.06 7.73  
Sea Level Pressure  
Sea Level Pressure 30.32 in    
Wind  
Wind Speed 6 mph (SE)    
Max Wind Speed 14 mph    
Max Gust Speed 18 mph    
Visibility 10 miles    
Events Rain    
T = Trace of Precipitation, MM = Missing Value Source: NWS Daily Summary

Daily Weather History Graph

Daily Weather History Graph

Search for Another Location

Airport:

Trip Planner

Search our weather history database for the weather conditions in past years. The results will help you decide how hot, cold, wet, or windy it might be!

Date:

Astronomy

Apr. 18, 2014 Rise Set
Actual Time 6:09 AM EDT 7:48 PM EDT
Civil Twilight 5:38 AM EDT 8:19 PM EDT
Nautical Twilight 5:01 AM EDT 8:57 PM EDT
Astronomical Twilight 4:20 AM EDT 9:37 PM EDT
Moon 11:37 PM EDT (4/18) 8:23 AM EDT (4/18)
Length of Visible Light 14h 40m
Length of Day
13h 38m
Waning Gibbous, 87% of the Moon is Illuminated
Apr 18
Waning Gibbous
Apr 22
Last Quarter
Apr 29
New
May 6
First Quarter
May 14
Full

Hourly Weather History & Observations

Time (EDT) Temp. Windchill Dew Point Humidity Pressure Visibility Wind Dir Wind Speed Gust Speed Precip Events Conditions
12:53 AM 39.0 °F 35.7 °F 19.9 °F 46% 30.49 in 10.0 mi SSE 4.6 mph - N/A   Clear
1:53 AM 39.9 °F 35.1 °F 21.0 °F 47% 30.48 in 10.0 mi SSE 6.9 mph - N/A   Clear
2:53 AM 39.9 °F 35.1 °F 21.0 °F 47% 30.48 in 10.0 mi SSE 6.9 mph - N/A   Clear
3:53 AM 39.0 °F 34.0 °F 21.0 °F 49% 30.46 in 10.0 mi SSE 6.9 mph - N/A   Clear
4:53 AM 37.9 °F 34.4 °F 21.0 °F 51% 30.43 in 10.0 mi SSE 4.6 mph - N/A   Clear
5:53 AM 33.1 °F 28.7 °F 21.9 °F 64% 30.42 in 10.0 mi SE 4.6 mph - N/A   Clear
6:53 AM 37.0 °F 34.5 °F 23.0 °F 57% 30.41 in 10.0 mi East 3.5 mph - N/A   Clear
7:53 AM 41.0 °F 37.1 °F 24.1 °F 51% 30.42 in 10.0 mi SSE 5.8 mph - N/A   Clear
8:53 AM 45.0 °F 40.1 °F 25.0 °F 46% 30.41 in 10.0 mi South 9.2 mph - N/A   Clear
9:53 AM 48.0 °F - 25.0 °F 41% 30.40 in 10.0 mi South 9.2 mph - N/A   Clear
10:53 AM 51.1 °F - 26.1 °F 38% 30.38 in 10.0 mi ESE 3.5 mph - N/A   Clear
11:53 AM 54.0 °F - 26.1 °F 34% 30.32 in 10.0 mi ESE 6.9 mph - N/A   Clear
12:53 PM 53.1 °F - 30.9 °F 43% 30.29 in 10.0 mi NE 10.4 mph - N/A   Clear
1:53 PM 53.1 °F - 28.9 °F 40% 30.29 in 10.0 mi ENE 8.1 mph - N/A   Clear
2:53 PM 52.0 °F - 28.9 °F 41% 30.25 in 10.0 mi ENE 8.1 mph - N/A   Clear
3:53 PM 54.0 °F - 28.9 °F 38% 30.23 in 10.0 mi ENE 5.8 mph - N/A   Partly Cloudy
4:53 PM 53.1 °F - 30.0 °F 41% 30.20 in 10.0 mi ENE 6.9 mph - N/A   Mostly Cloudy
5:53 PM 54.0 °F - 30.9 °F 41% 30.19 in 10.0 mi Calm Calm - N/A   Overcast
6:53 PM 52.0 °F - 30.9 °F 45% 30.18 in 10.0 mi NW 3.5 mph - N/A   Overcast
7:53 PM 46.9 °F - 37.9 °F 71% 30.21 in 9.0 mi WNW 5.8 mph - 0.00 in Rain Light Rain
8:53 PM 44.1 °F 41.5 °F 42.1 °F 93% 30.20 in 9.0 mi South 4.6 mph - 0.01 in Rain Light Rain
9:53 PM 44.1 °F 40.8 °F 42.1 °F 93% 30.21 in 9.0 mi SW 5.8 mph - 0.01 in Rain Light Rain
10:53 PM 42.8 °F 39.3 °F 42.8 °F 100% 30.20 in 5.0 mi West 5.8 mph - N/A Rain Light Rain
11:53 PM 42.1 °F 38.4 °F 41.0 °F 96% 30.19 in 7.0 mi South 5.8 mph - 0.06 in Rain Light Rain